| time (UTC) | temp F | wind direction | speed MPH | gust MPH | rain 1hr in | rain 24hr in | rain mn in | humidity % | barometer mb |
| 20260903070004 | 67 | 232 | 4.0 | 4.0 | 0.00 | 0.00 | 0.00 | 33 | 1021.7 |
| 20260903065504 | 67 | 232 | 4.0 | 4.0 | 0.00 | 0.00 | 0.00 | 33 | 1021.8 |
| 20260903065004 | 67 | 232 | 4.0 | 4.0 | 0.00 | 0.00 | 0.00 | 33 | 1021.8 |
| 20260903064504 | 67 | 232 | 4.0 | 4.0 | 0.00 | 0.00 | 0.00 | 33 | 1021.7 |
| 20260903064003 | 67 | 232 | 4.0 | 4.0 | 0.00 | 0.00 | 0.00 | 33 | 1021.7 |
| 20260903063503 | 67 | 232 | 4.0 | 4.0 | 0.00 | 0.00 | 0.00 | 33 | 1021.8 |
| 20260903063003 | 67 | 232 | 4.0 | 4.0 | 0.00 | 0.00 | 0.00 | 33 | 1021.7 |
| 20260903061004 | 69 | 182 | 7.0 | 8.0 | 0.00 | 0.00 | 0.00 | 32 | 1021.9 |
| 20260903060504 | 69 | 182 | 7.0 | 8.0 | 0.00 | 0.00 | 0.00 | 32 | 1021.8 |
| 20260903060004 | 69 | 182 | 7.0 | 8.0 | 0.00 | 0.00 | 0.00 | 32 | 1021.7 |
| 20260903055504 | 69 | 182 | 7.0 | 8.0 | 0.00 | 0.00 | 0.00 | 32 | 1021.8 |
| 20260903055004 | 69 | 182 | 7.0 | 8.0 | 0.00 | 0.00 | 0.00 | 32 | 1021.7 |
| 20260903054503 | 69 | 182 | 7.0 | 8.0 | 0.00 | 0.00 | 0.00 | 32 | 1021.5 |
| 20260903054003 | 69 | 215 | 9.0 | 9.0 | 0.00 | 0.00 | 0.00 | 33 | 1021.6 |
| 20260903053504 | 69 | 179 | 7.0 | 10.0 | 0.00 | 0.00 | 0.00 | 34 | 1021.5 |
| 20260903053003 | 69 | 179 | 7.0 | 10.0 | 0.00 | 0.00 | 0.00 | 34 | 1021.4 |
| 20260903052503 | 69 | 179 | 7.0 | 10.0 | 0.00 | 0.00 | 0.00 | 34 | 1021.4 |
| 20260903052003 | 69 | 179 | 7.0 | 10.0 | 0.00 | 0.00 | 0.00 | 34 | 1021.5 |
| 20260903033004 | 72 | 213 | 10.0 | 12.0 | 0.00 | 0.00 | 0.00 | 36 | 1021.4 |
| 20260903032504 | 72 | 213 | 10.0 | 12.0 | 0.00 | 0.00 | 0.00 | 36 | 1021.4 |
| 20260903032004 | 72 | 213 | 10.0 | 12.0 | 0.00 | 0.00 | 0.00 | 36 | 1021.5 |
| 20260903031504 | 72 | 213 | 10.0 | 12.0 | 0.00 | 0.00 | 0.00 | 36 | 1021.1 |
| 20260903031003 | 72 | 213 | 10.0 | 12.0 | 0.00 | 0.00 | 0.00 | 36 | 1021.1 |
| 20260903030504 | 72 | 213 | 10.0 | 12.0 | 0.00 | 0.00 | 0.00 | 36 | 1021.0 |
| 20260903030004 | 72 | 213 | 10.0 | 12.0 | 0.00 | 0.00 | 0.00 | 36 | 1021.1 |
| 20260903025504 | 72 | 213 | 10.0 | 12.0 | 0.00 | 0.00 | 0.00 | 36 | 1021.0 |
| 20260903025004 | 72 | 213 | 10.0 | 12.0 | 0.00 | 0.00 | 0.00 | 36 | 1021.0 |
| 20260903024504 | 72 | 213 | 10.0 | 12.0 | 0.00 | 0.00 | 0.00 | 36 | 1020.8 |
| 20260903024004 | 73 | 200 | 8.0 | 9.0 | 0.00 | 0.00 | 0.00 | 37 | 1020.7 |
| 20260903023504 | 73 | 200 | 8.0 | 9.0 | 0.00 | 0.00 | 0.00 | 37 | 1020.7 |
| 20260903023003 | 73 | 200 | 8.0 | 9.0 | 0.00 | 0.00 | 0.00 | 37 | 1020.6 |
| 20260903022504 | 73 | 200 | 8.0 | 9.0 | 0.00 | 0.00 | 0.00 | 37 | 1020.9 |
| 20260903022004 | 73 | 200 | 8.0 | 9.0 | 0.00 | 0.00 | 0.00 | 37 | 1020.8 |
| 20260903021504 | 73 | 211 | 11.0 | 11.0 | 0.00 | 0.00 | 0.00 | 36 | 1020.8 |
| 20260903021004 | 74 | 200 | 11.0 | 14.0 | 0.00 | 0.00 | 0.00 | 36 | 1020.7 |
| 20260903020504 | 74 | 200 | 11.0 | 14.0 | 0.00 | 0.00 | 0.00 | 36 | 1020.8 |
| 20260903020004 | 74 | 200 | 11.0 | 14.0 | 0.00 | 0.00 | 0.00 | 36 | 1021.0 |
| 20260903015504 | 74 | 200 | 11.0 | 14.0 | 0.00 | 0.00 | 0.00 | 36 | 1020.8 |
| 20260903015004 | 74 | 226 | 8.0 | 19.0 | 0.00 | 0.00 | 0.00 | 36 | 1020.7 |
| 20260903014503 | 75 | 203 | 13.0 | 15.0 | 0.00 | 0.00 | 0.00 | 35 | 1020.7 |
| 20260903014003 | 75 | 203 | 13.0 | 15.0 | 0.00 | 0.00 | 0.00 | 35 | 1020.7 |
| 20260903013503 | 75 | 203 | 13.0 | 15.0 | 0.00 | 0.00 | 0.00 | 35 | 1020.8 |
| 20260903013003 | 76 | 204 | 13.0 | 17.0 | 0.00 | 0.00 | 0.00 | 34 | 1020.7 |
| 20260903012503 | 76 | 247 | 14.0 | 15.0 | 0.00 | 0.00 | 0.00 | 33 | 1020.6 |
| 20260903012003 | 76 | 247 | 14.0 | 15.0 | 0.00 | 0.00 | 0.00 | 33 | 1020.6 |
| 20260903011504 | 76 | 229 | 7.0 | 12.0 | 0.00 | 0.00 | 0.00 | 34 | 1020.9 |
| 20260903011004 | 77 | 211 | 9.0 | 10.0 | 0.00 | 0.00 | 0.00 | 34 | 1020.8 |
| 20260903010503 | 77 | 204 | 11.0 | 17.0 | 0.00 | 0.00 | 0.00 | 33 | 1020.9 |
| 20260903010004 | 77 | 217 | 13.0 | 19.0 | 0.00 | 0.00 | 0.00 | 34 | 1020.7 |
| 20260903005504 | 78 | 169 | 10.0 | 20.0 | 0.00 | 0.00 | 0.00 | 34 | 1020.8 |
| 20260903005003 | 77 | 176 | 8.0 | 15.0 | 0.00 | 0.00 | 0.00 | 34 | 1020.8 |
| 20260903004504 | 78 | 191 | 5.0 | 8.0 | 0.00 | 0.00 | 0.00 | 33 | 1020.6 |
| 20260903004004 | 78 | 204 | 8.0 | 21.0 | 0.00 | 0.00 | 0.00 | 33 | 1020.8 |
| 20260903003504 | 78 | 175 | 6.0 | 11.0 | 0.00 | 0.00 | 0.00 | 33 | 1020.8 |
| 20260903003003 | 78 | 207 | 17.0 | 23.0 | 0.00 | 0.00 | 0.00 | 34 | 1020.7 |
| 20260903002503 | 77 | 214 | 14.0 | 14.0 | 0.00 | 0.00 | 0.00 | 34 | 1020.7 |
| 20260903002003 | 78 | 210 | 9.0 | 15.0 | 0.00 | 0.00 | 0.00 | 34 | 1020.8 |
| 20260903001503 | 78 | 159 | 13.0 | 26.0 | 0.00 | 0.00 | 0.00 | 33 | 1021.0 |
| 20260903001004 | 79 | 217 | 7.0 | 10.0 | 0.00 | 0.00 | 0.00 | 34 | 1020.8 |
| 20260903000504 | 78 | 213 | 13.0 | 25.0 | 0.00 | 0.00 | 0.00 | 35 | 1020.7 |
| 20260903000005 | 78 | 221 | 7.0 | 22.0 | 0.00 | 0.00 | 0.00 | 35 | 1020.9 |
| 20260902235503 | 78 | 208 | 17.0 | 17.0 | 0.00 | 0.00 | 0.00 | 35 | 1020.7 |
| 20260902235003 | 78 | 218 | 12.0 | 19.0 | 0.00 | 0.00 | 0.00 | 35 | 1020.8 |
| 20260902234504 | 79 | 226 | 11.0 | 16.0 | 0.00 | 0.00 | 0.00 | 35 | 1021.1 |
| 20260902232504 | 78 | 232 | 6.0 | 11.0 | 0.00 | 0.00 | 0.00 | 37 | 1020.8 |
| 20260902232004 | 78 | 232 | 6.0 | 11.0 | 0.00 | 0.00 | 0.00 | 37 | 1021.1 |
| 20260902230003 | 80 | 191 | 3.0 | 12.0 | 0.00 | 0.00 | 0.00 | 37 | 1021.0 |
| 20260902225503 | 79 | 198 | 16.0 | 18.0 | 0.00 | 0.00 | 0.00 | 38 | 1021.0 |
| 20260902225004 | 79 | 219 | 8.0 | 21.0 | 0.00 | 0.00 | 0.00 | 38 | 1021.0 |
| 20260902224503 | 80 | 228 | 8.0 | 18.0 | 0.00 | 0.00 | 0.00 | 37 | 1021.5 |
| 20260902224003 | 79 | 211 | 13.0 | 18.0 | 0.00 | 0.00 | 0.00 | 38 | 1021.3 |
| 20260902223504 | 78 | 254 | 8.0 | 16.0 | 0.00 | 0.00 | 0.00 | 40 | 1021.3 |
| 20260902223004 | 78 | 189 | 8.0 | 14.0 | 0.00 | 0.00 | 0.00 | 40 | 1021.4 |
| 20260902222504 | 80 | 206 | 13.0 | 15.0 | 0.00 | 0.00 | 0.00 | 39 | 1021.4 |
| 20260902222004 | 79 | 277 | 11.0 | 22.0 | 0.00 | 0.00 | 0.00 | 40 | 1021.5 |
| 20260902221504 | 80 | 203 | 12.0 | 20.0 | 0.00 | 0.00 | 0.00 | 39 | 1021.4 |
| 20260902221004 | 81 | 183 | 7.0 | 13.0 | 0.00 | 0.00 | 0.00 | 38 | 1021.4 |
| 20260902220504 | 80 | 199 | 9.0 | 15.0 | 0.00 | 0.00 | 0.00 | 39 | 1021.5 |
| 20260902220003 | 79 | 212 | 27.0 | 27.0 | 0.00 | 0.00 | 0.00 | 39 | 1021.6 |
| 20260902215503 | 79 | 210 | 5.0 | 14.0 | 0.00 | 0.00 | 0.00 | 40 | 1021.6 |
| 20260902215004 | 78 | 225 | 14.0 | 28.0 | 0.00 | 0.00 | 0.00 | 39 | 1021.8 |
| 20260902214504 | 78 | 225 | 15.0 | 29.0 | 0.00 | 0.00 | 0.00 | 38 | 1021.7 |
| 20260902214004 | 79 | 211 | 18.0 | 21.0 | 0.00 | 0.00 | 0.00 | 39 | 1021.8 |
| 20260902213504 | 79 | 221 | 11.0 | 17.0 | 0.00 | 0.00 | 0.00 | 38 | 1021.8 |
| 20260902213004 | 79 | 215 | 16.0 | 20.0 | 0.00 | 0.00 | 0.00 | 39 | 1021.7 |
| 20260902212504 | 81 | 204 | 18.0 | 19.0 | 0.00 | 0.00 | 0.00 | 39 | 1022.0 |
| 20260902212005 | 80 | 209 | 11.0 | 15.0 | 0.00 | 0.00 | 0.00 | 39 | 1021.8 |
| 20260902211504 | 80 | 209 | 11.0 | 15.0 | 0.00 | 0.00 | 0.00 | 39 | 1022.2 |
| 20260902211004 | 78 | 217 | 15.0 | 16.0 | 0.00 | 0.00 | 0.00 | 40 | 1021.9 |
| 20260902210504 | 78 | 217 | 15.0 | 16.0 | 0.00 | 0.00 | 0.00 | 40 | 1022.3 |
| 20260902210004 | 78 | 217 | 15.0 | 16.0 | 0.00 | 0.00 | 0.00 | 40 | 1022.3 |
| 20260902205504 | 78 | 217 | 15.0 | 16.0 | 0.00 | 0.00 | 0.00 | 40 | 1022.2 |
| 20260902205004 | 78 | 217 | 15.0 | 16.0 | 0.00 | 0.00 | 0.00 | 40 | 1022.0 |
| 20260902204504 | 78 | 217 | 15.0 | 16.0 | 0.00 | 0.00 | 0.00 | 40 | 1022.3 |
| 20260902204004 | 78 | 217 | 15.0 | 16.0 | 0.00 | 0.00 | 0.00 | 40 | 1022.2 |
| 20260902203504 | 78 | 217 | 15.0 | 16.0 | 0.00 | 0.00 | 0.00 | 40 | 1022.2 |
| 20260902203003 | 78 | 217 | 15.0 | 16.0 | 0.00 | 0.00 | 0.00 | 40 | 1022.2 |
| 20260902202504 | 78 | 199 | 10.0 | 28.0 | 0.00 | 0.00 | 0.00 | 44 | 1022.4 |
| 20260902202004 | 76 | 232 | 11.0 | 22.0 | 0.00 | 0.00 | 0.00 | 46 | 1022.3 |
| 20260902201506 | 77 | 226 | 9.0 | 19.0 | 0.00 | 0.00 | 0.00 | 46 | 1022.3 |
| 20260902201004 | 78 | 212 | 17.0 | 20.0 | 0.00 | 0.00 | 0.00 | 45 | 1022.4 |
| 20260902192503 | 76 | 165 | 7.0 | 19.0 | 0.00 | 0.00 | 0.00 | 47 | 1022.7 |
| 20260902192004 | 76 | 212 | 16.0 | 25.0 | 0.00 | 0.00 | 0.00 | 46 | 1022.6 |
| 20260902191503 | 78 | 207 | 14.0 | 19.0 | 0.00 | 0.00 | 0.00 | 45 | 1022.6 |
| 20260902191004 | 78 | 231 | 18.0 | 19.0 | 0.00 | 0.00 | 0.00 | 44 | 1022.7 |
| 20260902190504 | 78 | 168 | 15.0 | 22.0 | 0.00 | 0.00 | 0.00 | 45 | 1022.8 |
| 20260902190005 | 77 | 210 | 16.0 | 22.0 | 0.00 | 0.00 | 0.00 | 44 | 1022.8 |
| 20260902185504 | 78 | 215 | 19.0 | 20.0 | 0.00 | 0.00 | 0.00 | 44 | 1022.9 |
| 20260902185003 | 78 | 185 | 10.0 | 20.0 | 0.00 | 0.00 | 0.00 | 44 | 1022.7 |
| 20260902184505 | 76 | 189 | 8.0 | 33.0 | 0.00 | 0.00 | 0.00 | 46 | 1023.0 |
| 20260902183004 | 77 | 199 | 15.0 | 19.0 | 0.00 | 0.00 | 0.00 | 48 | 1022.8 |
| 20260902182504 | 75 | 211 | 13.0 | 21.0 | 0.00 | 0.00 | 0.00 | 49 | 1022.9 |
| 20260902182004 | 75 | 211 | 13.0 | 21.0 | 0.00 | 0.00 | 0.00 | 49 | 1022.9 |
| 20260902181504 | 75 | 211 | 13.0 | 21.0 | 0.00 | 0.00 | 0.00 | 49 | 1023.0 |
| 20260902181004 | 76 | 252 | 7.0 | 14.0 | 0.00 | 0.00 | 0.00 | 48 | 1023.0 |
| 20260902180504 | 76 | 252 | 7.0 | 14.0 | 0.00 | 0.00 | 0.00 | 48 | 1023.0 |
| 20260902174503 | 75 | 213 | 22.0 | 24.0 | 0.00 | 0.00 | 0.00 | 49 | 1023.1 |
| 20260902174003 | 76 | 207 | 16.0 | 18.0 | 0.00 | 0.00 | 0.00 | 48 | 1023.4 |
| 20260902173504 | 74 | 182 | 12.0 | 14.0 | 0.00 | 0.00 | 0.00 | 50 | 1023.4 |
| 20260902173003 | 74 | 182 | 12.0 | 14.0 | 0.00 | 0.00 | 0.00 | 50 | 1023.5 |
| 20260902172503 | 76 | 225 | 11.0 | 19.0 | 0.00 | 0.00 | 0.00 | 48 | 1023.2 |
| 20260902172004 | 74 | 215 | 8.0 | 19.0 | 0.00 | 0.00 | 0.00 | 49 | 1023.2 |
| 20260902171504 | 76 | 186 | 8.0 | 17.0 | 0.00 | 0.00 | 0.00 | 47 | 1023.6 |
| 20260902171004 | 76 | 191 | 7.0 | 12.0 | 0.00 | 0.00 | 0.00 | 47 | 1023.1 |
| 20260902170504 | 76 | 191 | 7.0 | 12.0 | 0.00 | 0.00 | 0.00 | 47 | 1023.2 |
| 20260902164504 | 75 | 175 | 13.0 | 16.0 | 0.00 | 0.00 | 0.00 | 48 | 1023.1 |
| 20260902164004 | 74 | 197 | 8.0 | 13.0 | 0.00 | 0.00 | 0.00 | 47 | 1023.2 |
| 20260902163504 | 74 | 169 | 11.0 | 13.0 | 0.00 | 0.00 | 0.00 | 47 | 1023.1 |
| 20260902163003 | 74 | 178 | 18.0 | 27.0 | 0.00 | 0.00 | 0.00 | 47 | 1023.0 |
| 20260902162504 | 74 | 141 | 8.0 | 16.0 | 0.00 | 0.00 | 0.00 | 46 | 1023.2 |
| 20260902162005 | 74 | 228 | 14.0 | 16.0 | 0.00 | 0.00 | 0.00 | 47 | 1022.8 |
| 20260902160005 | 73 | 189 | 15.0 | 16.0 | 0.00 | 0.00 | 0.00 | 49 | 1022.8 |
| 20260902155504 | 72 | 174 | 11.0 | 18.0 | 0.00 | 0.00 | 0.00 | 47 | 1022.9 |
| 20260902155004 | 72 | 196 | 11.0 | 11.0 | 0.00 | 0.00 | 0.00 | 50 | 1022.6 |
| 20260902154504 | 72 | 196 | 11.0 | 11.0 | 0.00 | 0.00 | 0.00 | 50 | 1022.8 |
| 20260902154004 | 72 | 173 | 4.0 | 6.0 | 0.00 | 0.00 | 0.00 | 50 | 1022.8 |
| 20260902153504 | 72 | 209 | 12.0 | 18.0 | 0.00 | 0.00 | 0.00 | 49 | 1022.8 |
| 20260902153004 | 72 | 209 | 12.0 | 18.0 | 0.00 | 0.00 | 0.00 | 49 | 1022.9 |
| 20260902152504 | 72 | 209 | 12.0 | 18.0 | 0.00 | 0.00 | 0.00 | 49 | 1022.8 |
| 20260902152004 | 72 | 222 | 8.0 | 11.0 | 0.00 | 0.00 | 0.00 | 52 | 1022.8 |
| 20260902151504 | 72 | 211 | 8.0 | 15.0 | 0.00 | 0.00 | 0.00 | 53 | 1022.6 |
| 20260902151004 | 71 | 171 | 14.0 | 17.0 | 0.00 | 0.00 | 0.00 | 52 | 1022.8 |
| 20260902150504 | 71 | 171 | 14.0 | 17.0 | 0.00 | 0.00 | 0.00 | 52 | 1022.9 |
| 20260902150003 | 71 | 171 | 14.0 | 17.0 | 0.00 | 0.00 | 0.00 | 52 | 1022.7 |
| 20260902145503 | 71 | 171 | 14.0 | 17.0 | 0.00 | 0.00 | 0.00 | 52 | 1022.8 |
| 20260902145004 | 70 | 168 | 9.0 | 9.0 | 0.00 | 0.00 | 0.00 | 56 | 1022.9 |
| 20260902144503 | 70 | 168 | 9.0 | 9.0 | 0.00 | 0.00 | 0.00 | 56 | 1022.9 |
| 20260902144004 | 70 | 168 | 9.0 | 9.0 | 0.00 | 0.00 | 0.00 | 56 | 1022.9 |
| 20260902134504 | 64 | 182 | 3.0 | 5.0 | 0.00 | 0.00 | 0.00 | 77 | 1022.5 |
| 20260902134004 | 64 | 182 | 3.0 | 5.0 | 0.00 | 0.00 | 0.00 | 77 | 1022.5 |
| 20260902133504 | 64 | 182 | 3.0 | 5.0 | 0.00 | 0.00 | 0.00 | 77 | 1022.6 |
| 20260902133003 | 64 | 182 | 3.0 | 5.0 | 0.00 | 0.00 | 0.00 | 77 | 1022.5 |
| 20260902132503 | 64 | 182 | 3.0 | 5.0 | 0.00 | 0.00 | 0.00 | 77 | 1022.3 |
| 20260902132004 | 64 | 182 | 3.0 | 5.0 | 0.00 | 0.00 | 0.00 | 77 | 1022.3 |
| 20260902131503 | 64 | 182 | 3.0 | 5.0 | 0.00 | 0.00 | 0.00 | 77 | 1022.4 |
| 20260902131003 | 64 | 182 | 3.0 | 5.0 | 0.00 | 0.00 | 0.00 | 77 | 1022.3 |
| 20260902130504 | 64 | 182 | 3.0 | 5.0 | 0.00 | 0.00 | 0.00 | 77 | 1022.3 |
| 20260902083504 | 69 | 199 | 8.0 | 11.0 | 0.00 | 0.00 | 0.00 | 64 | 1022.4 |
| 20260902081504 | 69 | 199 | 8.0 | 11.0 | 0.00 | 0.00 | 0.00 | 64 | 1022.4 |
| 20260902081003 | 69 | 199 | 8.0 | 11.0 | 0.00 | 0.00 | 0.00 | 64 | 1022.6 |
| 20260902075004 | 69 | 199 | 8.0 | 11.0 | 0.00 | 0.00 | 0.00 | 64 | 1022.4 |
| 20260902074504 | 69 | 199 | 8.0 | 11.0 | 0.00 | 0.00 | 0.00 | 64 | 1022.5 |
| 20260902074004 | 69 | 199 | 8.0 | 11.0 | 0.00 | 0.00 | 0.00 | 64 | 1022.5 |